Back to catalog

STARLINK-35974

AliveCommunicationsVLEO
NORAD 66862·PAYLOAD·🇺🇸 United States

Launched Dec 2, 2025 from Cape Canaveral Space Force Station

Loading…

Next Passes (next 24 hours)

TLE

FreshSource: CelesTrak SupGP

Epoch: Sep 14, 2026, 20:46 UTC

1 66862C 25281Q   26257.86576389  .00014045  00000+0  50869-3 0  2571
2 66862  43.0029 355.1055 0001471 271.9221 229.8973 15.27572062    17

Track STARLINK-35974 in real time with AllMySat

Download on the App Store